Regional Weather Roundup
Issued by NWS

Home | Current Version | Previous Version | Graphics & Text | Print | Product List | Glossary On
Versions: 1 2 3 4 5 6 7 8 9 10 11 12 13 14 15 16 17 18 19 20 21 22 23 24 25 26 27 28 29 30 31 32 33 34 35 36 37 38 39 40 41 42 43 44 45 46 47 48 49 50
938
ASUS44 KMEG 111500
RWRTN
TENNESSEE HOURLY STATE WEATHER ROUNDUP
NATIONAL WEATHER SERVICE MEMPHIS TN
900 AM CST MON DEC 11 2017

TNZ002-004-019-021-049-052-054-088>092-111600-
WEST TENNESSEE

CITY           SKY/WX    TMP DP  RH WIND       PRES   REMARKS
MEMPHIS INTL   SUNNY     47  33  58 CALM      30.15F
NWS MEMPHIS      N/A     42 N/A N/A MISG        N/A
JACKSON        SUNNY     46  33  60 SW6       30.14F
DYERSBURG      SUNNY     43  33  68 CALM      30.13F
$$

TNZ008-025-027-028-033-062-065-066-111600-
NORTH MIDDLE TENNESSEE

CITY           SKY/WX    TMP DP  RH WIND       PRES   REMARKS
NASHVILLE      MOSUNNY   41  29  62 S5        30.14S
CLARKSVILLE    SUNNY     40  29  64 S7        30.10F
SMYRNA         SUNNY     40  29  64 S6        30.15S
CROSSVILLE     SUNNY     38  26  62 VRB7      30.11S WCI  33
$$

TNZ061-075-076-078-094-096-097-111600-
SOUTH MIDDLE TENNESSEE

CITY           SKY/WX    TMP DP  RH WIND       PRES   REMARKS
$$

TNZ017-018-042-046-047-111600-
NORTHEAST TENNESSEE

CITY           SKY/WX    TMP DP  RH WIND       PRES   REMARKS
TRI CITIES     MOSUNNY   34  27  75 VRB3      30.14S
$$

TNZ012-013-036-069-073-074-111600-
CENTRAL EAST TENNESSEE

CITY           SKY/WX    TMP DP  RH WIND       PRES   REMARKS
KNOXVILLE      SUNNY     39  31  72 SW7       30.14F WCI  34
OAK RIDGE      SUNNY     37  27  67 VRB5      30.16F WCI  33
$$

TNZ083-085-099-111600-
SOUTHEAST TENNESSEE

CITY           SKY/WX    TMP DP  RH WIND       PRES   REMARKS
CHATTANOOGA    SUNNY     38  28  67 CALM      30.18S
$$

SKY/WX REPORTED AS FAIR MEANS FEW OR NO CLOUDS BELOW
12 THOUSAND FEET.





USA.gov is the U.S. government's official web portal to all federal, state and local government web resources and services.